Salina, KS

5:37 PM CST on December 16, 2017 (GMT -0600)
Salina Municipal

Weather History for KSLN - November, 2013

Change the Weather History Date:

Saturday, November 16, 2013

  Actual Average Record
Temperature  
Mean Temperature 62 °F 44 °F  
Max Temperature 74 °F 55 °F 82 °F (2016)
Min Temperature 49 °F 33 °F 6 °F (1955)
Degree Days  
Heating Degree Days 3 21  
Month to date heating degree days 280 280  
Since 1 July heating degree days 585 598  
Cooling Degree Days 0 0  
Month to date cooling degree days 0 0  
Year to date cooling degree days 1750 1646  
Growing Degree Days 12 (Base 50)    
Moisture  
Dew Point 42 °F    
Average Humidity 51    
Maximum Humidity 77    
Minimum Humidity 24    
Precipitation  
Precipitation 0.00 in 0.04 in 0.95 in (1991)
Month to date precipitation 0.35 0.74  
Year to date precipitation 29.41 30.05  
Sea Level Pressure  
Sea Level Pressure 29.40 in    
Wind  
Wind Speed 16 mph (SSW)    
Max Wind Speed 32 mph    
Max Gust Speed 40 mph    
Visibility 10 miles    
Events      
T = Trace of Precipitation, MM = Missing Value Source: NWS Daily Summary

Daily Weather History Graph

Daily Weather History Graph

Search for Another Location

Airport or City:

Trip Planner

Search our weather history database for the weather conditions in past years. The results will help you decide how hot, cold, wet, or windy it might be!

Date:

Astronomy

Nov. 16, 2013 Rise Set
Actual Time 7:14 AM CST 5:16 PM CST
Civil Twilight 6:45 AM CST 5:44 PM CST
Nautical Twilight 6:13 AM CST 6:16 PM CST
Astronomical Twilight 5:42 AM CST 6:48 PM CST
Moon 4:51 PM CST 6:12 AM CST
Length of Visible Light 10h 58m
Length of Day
10h 01m
Waxing Gibbous, 99% of the Moon is Illuminated
Nov 16
Waxing Gibbous
Nov 17
Full
Nov 25
Last Quarter
Dec 2
New
Dec 9
First Quarter

Hourly Weather History & Observations

Time (CST) Temp. Dew Point Humidity Pressure Visibility Wind Dir Wind Speed Gust Speed Precip Events Conditions
12:53 AM 54.0 °F 45.0 °F 72% 29.55 in 10.0 mi South 19.6 mph 29.9 mph N/A   Clear
1:53 AM 55.0 °F 46.0 °F 72% 29.50 in 10.0 mi South 20.7 mph 29.9 mph N/A   Clear
2:53 AM 55.9 °F 46.9 °F 72% 29.49 in 10.0 mi South 19.6 mph 29.9 mph N/A   Clear
3:53 AM 55.9 °F 48.0 °F 75% 29.47 in 10.0 mi South 16.1 mph 23.0 mph N/A   Clear
4:53 AM 57.0 °F 48.9 °F 74% 29.45 in 10.0 mi South 24.2 mph 32.2 mph N/A   Clear
5:53 AM 57.0 °F 48.9 °F 74% 29.43 in 10.0 mi South 20.7 mph 32.2 mph N/A   Clear
6:53 AM 57.0 °F 48.9 °F 74% 29.43 in 10.0 mi South 24.2 mph 32.2 mph N/A   Clear
7:53 AM 57.9 °F 48.9 °F 72% 29.42 in 10.0 mi South 19.6 mph 28.8 mph N/A   Clear
8:53 AM 60.1 °F 48.9 °F 67% 29.43 in 10.0 mi SSW 21.9 mph - N/A   Clear
9:53 AM 64.0 °F 48.9 °F 58% 29.43 in 10.0 mi SSW 23.0 mph 29.9 mph N/A   Clear
10:53 AM 69.1 °F 46.0 °F 44% 29.43 in 10.0 mi SW 29.9 mph 39.1 mph N/A   Clear
11:53 AM 72.0 °F 43.0 °F 35% 29.41 in 10.0 mi SW 21.9 mph 31.1 mph N/A   Clear
12:53 PM 73.0 °F 42.1 °F 33% 29.38 in 10.0 mi WSW 20.7 mph 25.3 mph N/A   Clear
1:53 PM 73.9 °F 42.1 °F 32% 29.37 in 10.0 mi WSW 17.3 mph - N/A   Clear
2:53 PM 73.9 °F 41.0 °F 30% 29.36 in 10.0 mi WSW 18.4 mph - N/A   Clear
3:53 PM 73.9 °F 41.0 °F 30% 29.36 in 10.0 mi NW 9.2 mph - N/A   Clear
4:51 PM 66.2 °F 28.4 °F 24% 29.39 in 10.0 mi North 11.5 mph - N/A   Mostly Cloudy
4:53 PM 66.0 °F 28.9 °F 25% 29.37 in 10.0 mi North 11.5 mph - N/A   Mostly Cloudy
5:53 PM 63.0 °F 28.9 °F 28% 29.38 in 10.0 mi ENE 5.8 mph - N/A   Mostly Cloudy
6:53 PM 61.0 °F 30.0 °F 31% 29.37 in 10.0 mi NE 5.8 mph - N/A   Clear
7:53 PM 60.1 °F 30.9 °F 33% 29.37 in 10.0 mi East 5.8 mph - N/A   Overcast
8:53 PM 55.9 °F 33.1 °F 42% 29.36 in 10.0 mi SSE 3.5 mph - N/A   Mostly Cloudy
9:53 PM 51.1 °F 35.1 °F 54% 29.34 in 10.0 mi South 6.9 mph - N/A   Partly Cloudy
10:53 PM 57.0 °F 45.0 °F 64% 29.31 in 10.0 mi South 9.2 mph - N/A   Clear
11:53 PM 61.0 °F 46.0 °F 58% 29.28 in 10.0 mi South 15.0 mph 20.7 mph N/A   Clear